Temperature
16 14 13 14 14 15 15 15 14 14 15 16 14 14 15 16 16 16 17 17 18 18 18 19 19 19 18 18 17 16 15 15 13 12 12 11 11 11 10 10 10 9 9 8
14 13 14 14 15 15 16 15 14 14 14 15 14 13 13 15 16 16 16 17 17 17 18 18 18 18 17 17 16 16 15 15 14 13 13 12 11 11 10 10 9 9 8 8
14 15 16 16 16 16 16 15 14 14 13 13 14 14 14 15 15 16 16 16 16 16 17 17 17 17 16 16 15 15 15 14 14 13 12 12 11 10 10 10 9 9 9 8
14 14 16 16 16 16 14 15 15 15 13 12 13 13 14 15 15 14 15 16 16 16 16 16 16 16 16 15 15 14 14 13 13 12 12 11 11 11 11 10 10 9 8 8
15 16 17 16 16 16 15 15 15 14 13 12 12 12 12 14 15 14 14 15 15 15 15 15 15 15 15 14 14 14 13 13 12 12 11 11 11 10 10 10 9 9 8 8
14 16 17 16 16 16 15 14 13 11 11 12 13 12 13 13 14 14 13 14 14 15 14 14 14 14 14 14 14 13 13 12 12 11 11 10 10 10 9 9 9 8 8 8
15 15 16 16 16 15 14 13 12 13 12 13 13 13 13 14 14 13 13 14 14 14 14 14 14 13 13 13 13 13 12 12 11 11 11 10 10 9 9 9 8 8 8 7
15 15 15 15 15 14 14 13 13 13 12 11 12 13 13 13 14 15 14 14 14 14 13 13 13 13 13 12 12 12 12 11 11 11 10 10 10 9 9 9 8 8 7 7
14 15 15 14 15 15 15 13 12 11 12 11 11 12 13 13 12 12 13 13 13 13 13 13 13 12 12 12 12 11 11 11 11 10 10 10 9 9 9 8 8 8 7 7
15 15 15 14 15 14 14 12 11 11 12 11 11 11 13 14 13 12 11 13 13 13 13 13 12 12 12 11 11 11 11 10 10 10 9 9 9 8 8 8 8 7 7 7
16 14 14 14 13 13 13 13 12 10 10 10 10 11 13 14 12 11 11 13 13 13 13 12 12 11 11 11 10 10 10 10 9 9 9 8 8 8 7 7 7 7 6 6
13 11 12 12 13 13 12 12 11 11 11 9 9 11 13 12 12 12 12 13 13 12 12 12 11 11 10 10 10 10 9 9 8 8 8 7 7 7 7 6 6 6 6 5
13 11 12 13 13 13 13 13 11 11 10 8 9 11 12 11 11 12 12 12 12 11 11 11 10 10 10 9 9 9 8 8 7 7 7 7 7 6 6 6 6 5 5 5
12 11 11 13 12 13 13 13 13 11 9 9 9 11 12 11 11 11 11 11 11 10 10 10 9 9 9 8 8 8 7 7 7 6 6 6 6 6 5 5 5 4 4 4
11 11 11 11 11 11 11 11 11 10 9 10 10 10 11 11 10 10 10 10 10 9 9 9 8 8 8 7 7 7 6 6 6 6 5 5 5 5 4 4 4 3 3 3
10 10 11 11 11 10 10 10 10 10 10 9 10 10 10 10 10 10 9 9 9 8 8 8 7 7 7 6 6 6 6 5 5 5 5 4 4 4 3 3 3 2 2 2
8 9 9 8 9 9 8 9 9 9 9 9 9 10 9 9 9 9 9 8 8 7 7 7 7 6 6 6 5 5 5 4 4 4 4 3 3 3 2 2 2 1 1 1
8 8 7 7 8 8 10 10 10 10 10 10 9 9 9 9 9 9 8 7 7 7 6 6 6 5 5 5 5 4 4 4 3 3 3 2 2 2 1 1 1 0 0 -0
8 8 7 6 6 7 8 10 10 10 9 9 8 8 8 8 7 7 8 7 6 6 6 5 5 5 4 4 4 3 3 3 3 2 2 1 1 1 0 0 -0 -1 -1 -1
6 7 6 5 6 7 9 10 11 10 8 8 7 7 7 7 5 5 7 6 6 5 5 5 4 4 4 4 3 3 3 2 2 1 1 0 0 -0 -1 -1 -1 -1 -2 -2
6 6 5 5 5 7 8 9 10 9 8 8 7 7 7 6 5 6 6 5 5 5 4 4 4 3 3 3 2 2 2 1 1 0 0 -0 -1 -1 -1 -2 -2 -2 -2 -2
6 5 4 4 5 7 9 9 8 7 7 7 7 6 6 6 5 5 5 4 4 4 4 3 3 3 3 2 2 1 1 1 0 -0 -1 -1 -1 -2 -2 -3 -3 -3 -3 -3
6 7 6 6 7 8 9 8 8 8 7 7 6 6 5 5 4 4 4 4 4 3 3 3 2 2 2 2 1 1 0 -0 -1 -1 -2 -2 -2 -3 -3 -3 -3 -3 -4 -4
6 6 5 5 6 7 7 7 7 6 6 6 5 5 4 4 4 3 3 3 3 2 2 2 2 1 1 1 1 0 -0 -1 -2 -2 -2 -3 -3 -3 -4 -4 -4 -4 -4 -5
6 6 5 5 6 6 6 6 5 5 5 5 4 4 4 3 3 3 3 2 2 2 2 1 1 1 1 0 0 -0 -1 -2 -3 -3 -3 -4 -4 -4 -5 -5 -5 -5 -5 -5
4 5 5 5 6 5 6 5 5 5 5 4 4 4 4 3 3 2 2 2 2 1 1 1 1 0 -0 -0 -1 -1 -2 -3 -4 -4 -4 -5 -5 -5 -5 -5 -5 -5 -5 -5
Wind_Speed
2 2 5 8 9 7 5 6 9 9 6 5 9 13 15 8 2 4 5 7 8 8 9 8 5 1 6 9 11 13 15 14 11 8 10 10 13 10 8 14 19 22 23 23
3 5 11 8 6 6 6 6 8 8 5 4 8 10 8 1 4 5 5 6 7 8 11 11 8 4 2 6 8 10 12 13 13 13 12 7 7 7 8 9 14 20 22 22
8 8 4 5 6 5 5 6 6 6 8 6 6 8 6 4 4 4 4 4 4 6 8 9 8 4 2 2 6 9 11 12 12 11 6 3 2 2 4 7 8 14 21 22
8 7 5 6 6 5 6 5 4 3 5 6 4 4 6 1 1 1 2 3 4 5 6 6 7 6 3 3 2 4 6 8 9 9 8 10 10 12 12 10 10 10 17 20
6 3 4 6 6 6 6 2 2 2 1 4 2 3 8 3 5 5 3 1 2 4 5 6 7 7 6 5 2 1 1 4 6 8 11 11 13 13 9 7 9 11 11 16
8 4 5 5 2 2 1 5 5 5 4 3 3 4 6 5 9 8 5 3 1 2 4 5 6 7 7 6 5 3 1 2 4 7 9 11 14 13 11 10 10 10 10 11
4 2 2 3 2 1 4 5 5 5 4 5 4 3 8 7 6 9 9 6 3 1 2 3 5 6 7 7 6 4 3 4 4 6 9 11 13 13 14 14 12 11 10 10
3 5 5 4 5 5 3 6 5 3 4 6 6 5 7 6 3 7 7 6 3 2 0 1 2 3 4 5 5 4 4 5 5 6 8 9 10 9 11 12 12 12 12 12
6 5 0 2 2 6 4 4 6 5 1 4 7 7 6 5 7 6 5 4 4 3 2 1 1 2 3 4 4 4 5 6 6 6 7 8 9 10 11 12 11 11 12 11
8 4 2 1 3 2 3 7 5 4 2 4 7 7 4 4 4 4 5 6 6 5 4 2 1 2 3 3 4 4 4 5 6 6 6 7 8 9 10 9 11 12 13 12
5 5 2 0 7 7 5 4 5 4 5 5 4 7 5 5 7 8 8 7 7 6 4 3 2 3 3 4 5 5 5 6 6 7 7 7 8 8 8 8 11 11 11 11
5 5 4 7 5 4 8 8 8 5 5 6 4 8 5 5 5 6 6 4 4 4 3 2 3 4 5 6 6 6 6 6 7 7 7 8 8 8 8 9 11 10 11 11
6 6 1 6 2 1 2 5 6 5 4 5 5 8 2 2 2 2 2 1 2 3 3 3 4 5 6 6 6 7 7 7 7 7 7 8 9 9 9 10 11 10 10 11
6 5 7 8 6 4 4 5 5 6 5 7 10 12 9 7 5 2 1 1 2 3 4 4 5 6 7 7 7 7 8 8 8 7 8 9 10 10 10 10 10 10 10 11
6 5 6 7 6 5 7 10 9 10 10 11 10 11 13 8 4 1 1 3 4 4 5 5 6 6 7 7 8 7 8 8 8 8 9 10 10 10 10 10 11 10 10 11
4 5 3 4 5 6 10 14 13 12 10 11 12 13 5 1 3 3 3 3 3 4 5 7 7 8 8 8 8 8 9 9 8 9 10 10 10 10 10 11 11 11 11 11
6 7 4 4 4 7 10 11 8 7 7 8 9 5 2 2 2 1 1 1 2 5 7 8 8 8 9 9 8 8 9 9 9 10 11 11 11 11 11 11 11 12 12 12
8 8 5 2 1 8 9 3 4 4 2 2 3 3 2 1 2 2 3 1 4 6 7 8 8 8 8 8 8 9 9 9 10 10 11 11 11 12 12 12 12 12 11 11
6 8 5 5 4 9 10 6 4 4 1 2 5 3 0 3 2 2 2 2 5 6 7 7 8 8 8 9 9 9 10 10 10 11 11 11 11 12 13 13 13 12 12 12
3 5 6 6 5 8 8 4 0 3 3 1 4 2 1 2 4 5 5 6 8 8 7 8 8 8 9 9 9 10 11 11 12 12 12 12 12 13 14 14 14 12 11 13
5 4 6 6 6 9 8 5 3 4 5 3 3 2 1 2 6 7 7 8 8 8 9 8 8 8 9 9 9 11 12 12 13 13 13 13 12 13 14 13 12 12 13 13
9 7 7 7 7 10 4 3 5 4 3 3 2 2 4 6 8 8 8 8 8 8 8 8 8 9 9 9 10 12 14 14 14 13 14 14 13 13 12 13 13 12 13 13
8 9 8 10 9 2 3 5 4 4 3 2 3 5 6 6 7 7 7 7 8 8 8 8 9 11 10 9 9 13 16 15 15 14 15 14 14 12 11 12 14 13 11 11
4 4 5 5 5 3 5 5 4 3 4 5 5 5 4 5 7 7 7 7 8 8 9 8 10 12 13 12 11 12 14 14 14 16 16 14 14 14 12 10 11 11 11 12
5 4 4 4 2 4 4 4 5 4 4 4 3 3 3 4 5 6 6 8 8 8 8 9 10 13 15 14 13 12 12 13 14 15 15 14 12 13 13 11 11 13 11 14
4 6 6 6 5 5 4 3 3 2 2 2 2 3 3 3 5 6 7 7 8 10 10 11 12 13 15 15 15 14 12 12 14 15 14 12 12 12 12 13 14 18 19 24
Wind_Direction
43 84 226 223 208 215 235 248 272 268 282 300 270 279 291 304 98 90 53 34 25 5 344 358 9 141 178 188 193 197 200 200 188 187 196 204 215 213 211 213 213 211 211 209
20 258 241 228 216 214 235 271 282 293 329 307 292 297 305 330 125 128 100 60 38 18 10 10 19 44 156 195 202 202 203 199 197 204 204 204 209 212 214 216 215 213 213 212
220 244 247 196 216 244 264 246 260 284 326 348 353 342 356 19 59 66 60 56 46 39 25 11 14 21 25 226 215 211 208 204 204 202 189 183 177 253 216 219 221 217 216 216
237 251 212 214 230 205 269 251 240 303 1 314 23 314 291 279 71 84 43 39 46 33 29 21 16 11 350 299 264 233 215 208 204 192 192 198 211 225 226 224 225 218 216 219
260 228 194 219 232 192 234 301 276 256 130 318 310 199 280 250 210 214 216 190 66 41 38 31 18 9 2 359 1 324 227 215 204 199 204 211 227 236 240 231 229 227 223 222
247 248 215 210 178 176 20 32 44 50 68 319 250 181 276 221 207 194 201 200 137 64 44 33 20 21 13 12 20 22 2 261 221 212 216 220 232 240 245 241 238 238 234 229
301 256 221 142 123 67 72 61 11 352 2 268 287 229 254 254 213 174 175 180 185 126 65 35 28 21 13 13 10 7 349 300 261 232 231 231 237 241 244 247 246 245 245 240
275 284 227 193 183 183 185 140 157 237 261 291 317 258 271 312 96 126 141 162 171 161 157 45 27 18 358 4 7 356 332 303 285 257 249 244 242 244 250 250 248 248 250 248
199 259 354 176 207 161 157 169 170 145 266 276 287 294 318 41 77 106 136 159 185 208 219 229 321 3 352 354 349 333 321 308 299 281 268 262 252 247 251 256 253 254 255 254
164 225 261 74 80 43 149 145 105 137 214 272 292 288 237 193 170 168 185 202 218 229 239 244 296 328 334 335 332 332 320 302 297 293 280 272 267 259 257 261 261 260 260 257
140 176 268 285 202 203 159 174 157 149 165 181 265 274 234 198 188 186 207 216 217 226 238 259 292 320 332 338 339 334 326 316 309 302 293 287 282 277 273 266 265 265 265 261
132 132 235 257 253 207 183 185 155 168 223 193 204 266 264 168 174 178 199 219 235 250 265 285 315 334 338 337 331 326 319 312 303 299 298 293 289 289 283 276 273 270 268 267
134 122 10 332 336 67 192 186 174 152 154 186 201 259 253 162 152 174 180 237 283 311 331 339 337 332 325 321 317 314 312 306 302 304 304 302 300 296 289 284 282 279 275 273
118 145 182 211 210 190 248 243 210 178 202 228 226 248 273 294 309 313 348 10 4 6 1 348 331 316 308 305 304 305 304 302 304 307 307 303 298 294 290 290 289 285 281 279
121 185 221 241 249 239 243 252 241 223 215 230 246 249 267 272 246 219 50 38 38 19 355 336 314 302 300 301 302 301 300 302 304 306 304 298 296 296 296 295 293 289 285 282
125 169 196 273 276 282 275 262 249 241 230 234 257 270 277 147 115 82 62 51 25 339 321 314 309 308 304 299 296 298 299 299 302 301 297 297 300 300 298 295 293 290 287 284
157 150 156 260 312 342 279 254 226 220 219 209 227 236 126 89 72 86 119 49 326 306 302 303 302 295 292 290 290 294 293 297 300 298 297 299 300 298 294 293 293 290 289 286
153 150 157 193 54 249 246 243 212 214 256 196 141 113 102 185 263 228 162 41 308 299 297 296 293 293 291 289 293 294 297 301 301 299 297 296 295 293 292 292 291 291 289 287
164 151 150 160 221 275 287 273 200 171 187 88 122 114 17 289 320 286 222 287 284 285 285 285 286 290 293 296 300 305 306 306 305 302 298 296 294 293 294 294 293 292 292 291
97 141 148 159 196 242 251 257 190 95 217 148 126 121 339 33 351 282 282 304 299 297 297 300 301 303 305 306 308 309 308 307 304 300 298 295 292 290 292 292 292 291 290 291
125 148 175 178 214 258 255 258 140 190 232 162 139 158 208 220 235 259 286 289 285 289 293 298 302 302 299 302 308 307 306 303 300 299 298 296 292 290 291 291 290 292 293 292
171 169 183 166 200 248 249 143 160 187 136 142 174 227 249 252 264 276 282 284 292 297 301 306 307 304 302 303 306 306 305 303 302 300 300 299 295 294 298 293 294 292 292 294
195 189 182 190 207 221 97 119 122 129 147 194 231 253 260 267 275 283 287 294 298 299 302 303 303 303 303 301 297 299 303 305 305 304 302 301 298 294 292 292 295 297 293 293
245 163 162 215 242 151 117 118 128 161 191 220 235 249 253 266 281 291 294 299 302 301 303 303 306 307 308 306 299 292 298 303 304 305 305 303 302 302 296 291 291 293 294 293
228 154 165 230 225 126 157 179 196 203 203 209 231 238 256 281 294 295 297 298 298 299 299 300 301 303 304 306 304 300 300 303 304 304 304 304 301 300 301 295 290 292 284 286
206 182 185 226 209 182 217 214 193 195 236 249 277 304 312 301 291 294 293 292 295 300 302 303 301 301 303 305 305 305 303 302 304 307 307 305 303 301 300 301 300 294 293 296
Height
1535 1540 1542 1538 1537 1536 1537 1538 1539 1532 1523 1523 1521 1517 1508 1504 1505 1505 1504 1502 1500 1498 1497 1495 1494 1493 1493 1494 1496 1498 1500 1502 1504 1505 1506 1507 1507 1508 1509 1510 1512 1514 1515 1516
1539 1540 1532 1530 1531 1533 1534 1536 1536 1529 1523 1523 1520 1517 1508 1504 1504 1505 1505 1503 1502 1500 1498 1496 1495 1494 1494 1494 1495 1496 1497 1499 1500 1501 1502 1503 1504 1504 1505 1506 1506 1507 1508 1509
1538 1532 1526 1527 1529 1531 1531 1534 1532 1531 1527 1522 1522 1518 1512 1508 1506 1507 1506 1505 1503 1502 1500 1498 1496 1495 1495 1494 1494 1494 1495 1496 1497 1498 1499 1499 1500 1499 1499 1499 1500 1500 1501 1502
1532 1526 1525 1526 1527 1528 1534 1526 1527 1527 1532 1535 1531 1535 1520 1511 1510 1508 1507 1506 1505 1503 1501 1500 1498 1496 1495 1494 1494 1493 1493 1494 1494 1496 1496 1495 1494 1493 1492 1494 1494 1494 1494 1494
1529 1523 1523 1525 1524 1524 1526 1524 1526 1526 1530 1536 1532 1535 1525 1513 1512 1509 1508 1507 1506 1505 1503 1501 1499 1498 1497 1495 1494 1493 1492 1492 1492 1493 1492 1492 1490 1489 1488 1488 1487 1486 1486 1485
1524 1521 1520 1521 1521 1522 1523 1526 1529 1534 1538 1539 1528 1534 1525 1515 1507 1507 1507 1507 1506 1505 1504 1502 1501 1499 1498 1496 1495 1494 1493 1492 1491 1490 1490 1488 1487 1485 1484 1482 1480 1479 1478 1477
1523 1521 1518 1519 1522 1524 1526 1535 1543 1540 1545 1538 1527 1527 1520 1503 1499 1501 1504 1506 1506 1506 1505 1503 1502 1500 1498 1497 1495 1494 1493 1492 1490 1489 1487 1485 1483 1481 1479 1476 1474 1472 1470 1468
1529 1528 1519 1518 1520 1524 1525 1532 1544 1546 1548 1543 1529 1526 1513 1502 1498 1500 1503 1506 1506 1506 1505 1503 1502 1501 1499 1497 1496 1494 1492 1491 1489 1487 1485 1483 1480 1477 1474 1471 1469 1465 1462 1460
1528 1525 1517 1517 1517 1520 1524 1530 1531 1542 1543 1545 1537 1524 1511 1504 1503 1503 1505 1506 1506 1505 1504 1503 1502 1500 1499 1497 1495 1494 1491 1489 1487 1485 1482 1479 1476 1473 1470 1466 1463 1459 1456 1453
1516 1522 1518 1518 1519 1520 1521 1526 1536 1540 1545 1548 1540 1529 1518 1508 1507 1506 1506 1506 1505 1504 1503 1502 1501 1500 1498 1496 1494 1492 1489 1487 1484 1481 1478 1475 1472 1468 1465 1461 1457 1453 1450 1447
1511 1521 1522 1521 1521 1521 1525 1526 1529 1538 1543 1548 1546 1532 1507 1503 1503 1505 1504 1503 1503 1503 1502 1501 1500 1499 1497 1495 1492 1489 1486 1483 1480 1477 1473 1470 1466 1463 1459 1455 1451 1447 1443 1439
1512 1522 1527 1522 1516 1515 1518 1520 1527 1535 1537 1540 1544 1530 1501 1501 1501 1502 1502 1502 1502 1502 1501 1500 1499 1497 1495 1492 1489 1486 1483 1479 1476 1472 1468 1464 1460 1456 1452 1448 1444 1440 1436 1431
1511 1522 1529 1525 1522 1517 1516 1516 1520 1524 1531 1538 1540 1523 1501 1501 1500 1500 1501 1501 1500 1500 1499 1498 1497 1495 1492 1489 1485 1482 1479 1475 1471 1467 1463 1459 1455 1450 1446 1441 1437 1432 1428 1423
1507 1518 1524 1525 1521 1516 1516 1515 1515 1521 1530 1531 1524 1511 1502 1500 1499 1499 1499 1499 1499 1498 1497 1496 1494 1492 1488 1485 1481 1478 1474 1470 1466 1461 1457 1453 1448 1444 1439 1434 1429 1424 1419 1414
1507 1516 1517 1516 1514 1515 1515 1514 1513 1516 1516 1517 1508 1506 1499 1497 1497 1498 1498 1498 1497 1496 1495 1493 1491 1488 1484 1480 1477 1473 1469 1465 1460 1456 1451 1447 1442 1436 1431 1426 1421 1415 1410 1405
1507 1513 1515 1515 1512 1513 1512 1505 1505 1506 1506 1505 1502 1499 1494 1495 1495 1496 1496 1496 1495 1494 1492 1490 1486 1483 1479 1475 1471 1467 1463 1459 1455 1450 1445 1440 1434 1429 1423 1418 1412 1406 1400 1395
1508 1513 1518 1521 1517 1515 1511 1497 1497 1497 1495 1496 1498 1496 1494 1495 1495 1495 1495 1494 1493 1491 1489 1485 1482 1478 1474 1470 1466 1462 1457 1453 1448 1443 1438 1432 1426 1420 1415 1409 1402 1396 1390 1384
1506 1511 1518 1523 1519 1521 1498 1490 1490 1491 1492 1491 1492 1494 1494 1494 1494 1493 1492 1492 1490 1487 1484 1481 1477 1473 1469 1465 1461 1456 1451 1446 1441 1436 1430 1424 1418 1412 1406 1399 1393 1387 1381 1375
1498 1506 1516 1524 1522 1513 1496 1488 1486 1488 1491 1491 1492 1493 1493 1493 1492 1491 1490 1488 1486 1483 1480 1476 1472 1468 1464 1460 1455 1450 1445 1440 1434 1428 1422 1416 1410 1403 1397 1390 1384 1378 1372 1365
1499 1501 1512 1520 1518 1513 1492 1484 1483 1487 1492 1492 1491 1491 1491 1490 1493 1490 1486 1484 1481 1478 1475 1471 1467 1463 1459 1454 1449 1444 1438 1433 1427 1420 1414 1408 1402 1396 1389 1382 1375 1369 1364 1356
1502 1505 1509 1514 1514 1501 1486 1482 1483 1493 1491 1490 1489 1489 1489 1488 1489 1486 1483 1480 1477 1474 1470 1466 1462 1458 1454 1449 1444 1438 1432 1426 1419 1412 1406 1400 1394 1387 1380 1373 1367 1361 1354 1347
1494 1502 1506 1509 1510 1498 1480 1480 1484 1486 1486 1487 1487 1487 1486 1484 1482 1480 1478 1475 1472 1468 1465 1461 1457 1452 1448 1444 1438 1431 1424 1418 1411 1404 1397 1390 1384 1378 1371 1364 1357 1351 1345 1338
1484 1483 1486 1488 1486 1480 1478 1479 1482 1483 1484 1485 1484 1483 1482 1480 1478 1476 1473 1470 1467 1464 1460 1456 1451 1446 1441 1437 1432 1424 1417 1410 1403 1395 1388 1381 1374 1368 1362 1356 1349 1342 1336 1331
1477 1475 1479 1481 1478 1478 1479 1480 1481 1482 1482 1481 1481 1479 1478 1476 1473 1471 1469 1466 1462 1459 1455 1450 1445 1439 1434 1429 1424 1418 1410 1403 1395 1387 1379 1372 1365 1358 1352 1347 1341 1335 1328 1323
1473 1474 1476 1477 1476 1477 1479 1479 1479 1479 1478 1477 1476 1475 1473 1471 1469 1467 1464 1461 1458 1454 1449 1445 1439 1433 1427 1421 1415 1410 1403 1395 1387 1378 1371 1364 1357 1350 1343 1337 1333 1327 1321 1318
1470 1471 1474 1474 1472 1474 1475 1475 1475 1475 1474 1473 1472 1470 1469 1467 1465 1463 1460 1456 1452 1448 1443 1438 1433 1427 1420 1414 1407 1401 1395 1387 1379 1370 1363 1356 1349 1342 1336 1329 1322 1318 1315 1309